Notices

What's New in latest Release from April 7th, 2021:

- Updated Glossary, including Speed of Maximum Gust, and Total Hourly Precipitation

- Updated national and regional climate services offices contacts and prices information

- Addition of station inventory lists for 1981-2010, 1971-2000, and 1961-1990 Normals.

If you haven't already, please take our survey and provide feedback about our website: https://eccc.sondage-survey.ca/f/LanguageSelection.aspx?s=442ca660-fcf1-47c0-95a9-59707d6fd709

Hourly Data Report for February 16, 2021

OTTAWA INTL A
ONTARIO
Current Station Operator: NAVCAN

45°19'00.000" N
75°40'00.000" W
114.90 m
6106001
71628
YOW

Download Data

Hourly Data (February 2021)
Hourly Data Report for February 16, 2021
TIME
LST
Temp Definition
°C
Dew Point Definition
°C
Rel Hum Definition
%
Precip. Amount Definition
mm

Wind Dir Definition
10's deg

Wind Spd Definition
km/h
Visibility Definition
km
Stn Press Definition
kPa
Hmdx Definition


Wind Chill Definition


Weather Definition


00:00 -8.0 -9.3 91   5 13 2.4 100.48   -14 Snow
01:00 -8.1 -9.4 90   6 18 1.6 100.34   -15 Snow
02:00 -8.2 -9.5 91   4 18 1.2 100.24   -15 Snow
03:00 -8.2 -9.5 90   2 23 1.2 100.06   -16 Snow
04:00 -8.5 -9.8 90   4 31 1.2 99.79   -18 Snow,Blowing Snow
05:00 -8.4 -9.9 89   4 25 2.4 99.55   -17 Snow,Blowing Snow
06:00 -8.3 -9.6 90   4 18 1.6 99.51   -15 Snow
07:00 -8.1 -9.5 90   3 18 1.2 99.35   -15 Snow
08:00 -8.1 -9.4 90   1 17 1.2 99.21   -15 Snow
09:00 -8.1 -9.9 87   35 23 9.7 99.08   -16 Snow
10:00 -8.5 -10.7 85   35 22 12.9 98.93   -16 Snow
11:00 -9.2 -11.7 82   33 25 6.4 98.92   -18 Snow
12:00 -10.2 -12.4 84   33 23 9.7 98.86   -19 Snow
13:00 -10.9 -13.7 80   32 37 9.7 98.82   -22 Snow,Blowing Snow
14:00 -11.0 -14.3 77   33 33 16.1 98.88   -21 Snow,Blowing Snow
15:00 -10.9 -13.1 84   31 24 6.4 98.96   -20 Snow
16:00 -11.2 -13.1 85   29 22 1.2 99.06   -20 Snow,Blowing Snow
17:00 -11.2 -13.6 83   29 25 1.6 99.21   -20 Snow,Blowing Snow
18:00 -11.0 -13.2 84   28 22 2.4 99.41   -20 Snow,Blowing Snow
19:00 -10.8 -13.0 84   28 28 2.4 99.58   -20 Snow,Blowing Snow
20:00 -11.2 -13.6 83   28 26 9.7 99.68   -20 Snow,Blowing Snow
21:00 -11.7 -14.3 81   28 26 16.1 99.82   -21 Snow,Blowing Snow
22:00 -12.0 -14.4 83   29 21 12.9 99.98   -21 Snow
23:00 -13.2 -16.6 76   28 25 24.1 100.14   -23 LegendNANA

Notes on Data Quality.

Legend

  • E = Estimated
  • M = Missing
  • NA = Not Available*
  • [empty] = Indicates an unobserved value
Date modified: